This is the latest recevied weather packets stored in our database for station/object KC1TEM-13. If no packets are shown the sender has not sent any weather packets the latest 10 day(s).
| Time | Temp. | Humidity | Pressure | Rain* | Wind** | Luminosity | Snow |
|---|---|---|---|---|---|---|---|
| 1777674126 | 15.56° C | 29% | 1009.7 hPa | 0 mm | - | 31 W/m² | - |
| 1777673822 | 15.56° C | 30% | 1009.5 hPa | 0 mm | - | 32 W/m² | - |
| 1777673519 | 15.56° C | 29% | 1009.4 hPa | 0 mm | - | 33 W/m² | - |
| 1777673217 | 15.56° C | 28% | 1009.4 hPa | 0 mm | - | 34 W/m² | - |
| 1777672914 | 15.56° C | 28% | 1009.7 hPa | 0 mm | - | 35 W/m² | - |
| 1777672611 | 16.11° C | 28% | 1009.4 hPa | 0 mm | - | 37 W/m² | - |
| 1777672306 | 16.67° C | 28% | 1009.7 hPa | 0 mm | - | 52 W/m² | - |
| 1777672001 | 17.22° C | 28% | 1009.6 hPa | 0 mm | - | 88 W/m² | - |
| 1777671697 | 17.22° C | 28% | 1009.3 hPa | 0 mm | - | 195 W/m² | - |
| 1777671394 | 17.22° C | 27% | 1009.3 hPa | 0 mm | - | 211 W/m² | - |
| 1777671090 | 17.22° C | 26% | 1009.1 hPa | 0 mm | - | 226 W/m² | - |
| 1777670787 | 17.78° C | 27% | 1009.2 hPa | 0 mm | - | 239 W/m² | - |
| 1777670483 | 17.78° C | 27% | 1009.1 hPa | 0 mm | - | 256 W/m² | - |
| 1777670180 | 17.78° C | 27% | 1009.1 hPa | 0 mm | - | 276 W/m² | - |
| 1777669878 | 17.78° C | 26% | 1009 hPa | 0 mm | - | 297 W/m² | - |
| 1777669575 | 17.78° C | 26% | 1009.1 hPa | 0 mm | - | 313 W/m² | - |
| 1777669271 | 17.22° C | 27% | 1008.9 hPa | 0 mm | - | 332 W/m² | - |
| 1777668968 | 16.67° C | 28% | 1008.9 hPa | 0 mm | - | 351 W/m² | - |
| 1777668665 | 17.22° C | 27% | 1009 hPa | 0 mm | - | 369 W/m² | - |
| 1777668361 | 17.78° C | 27% | 1008.9 hPa | 0 mm | - | 389 W/m² | - |
| 1777668057 | 17.78° C | 27% | 1008.7 hPa | 0 mm | - | 412 W/m² | - |
| 1777667754 | 17.22° C | 30% | 1008.8 hPa | 0 mm | - | 424 W/m² | - |
| 1777667452 | 17.22° C | 29% | 1008.7 hPa | 0 mm | - | 438 W/m² | - |
| 1777667149 | 17.22° C | 30% | 1008.7 hPa | 0 mm | - | 458 W/m² | - |
| 1777666845 | 17.22° C | 30% | 1008.7 hPa | 0 mm | - | 480 W/m² | - |
* Rain latest hour (hover to see other rain measurements)
** Current wind speed in m/s (hover to see current wind gust speed)